Regional Weather Roundup
Issued by NWS

Home | Current Version | Previous Version | Graphics & Text | Print | Product List | Glossary Off
Versions: 1 2 3 4 5 6 7 8 9 10 11 12 13 14 15 16 17 18 19 20 21 22 23 24 25 26 27 28 29 30 31 32 33 34 35 36 37 38 39 40 41 42 43 44 45 46 47 48 49 50

000
ASUS43 KMKX 221210
RWRWI

WISCONSIN REGIONAL WEATHER ROUNDUP
NATIONAL WEATHER SERVICE MILWAUKEE/SULLIVAN WI
600 AM CST SUN JAN 22 2017

NOTE: "FAIR" INDICATES FEW OR NO CLOUDS BELOW 12,000 FEET WITH NO
SIGNIFICANT WEATHER AND/OR OBSTRUCTIONS TO VISIBILITY.

WIZ001-002-006>008-014>016-023>028-221300-
NORTHWEST WISCONSIN

CITY           SKY/WX    TMP DP  RH WIND       PRES   REMARKS
SUPERIOR ARPT  CLOUDY    34  34 100 NW3       29.62S
6HR MIN TEMP:  34; 6HR MAX TEMP:  35;

ASHLAND        CLOUDY    34  33  96 W5        29.59S FOG     WCI  30
6HR MIN TEMP:  33; 6HR MAX TEMP:  34;

HAYWARD        CLOUDY    34  33  96 CALM      29.58R
6HR MIN TEMP:  34; 6HR MAX TEMP:  35;

SIREN          FOG       34  34  99 N6        29.61R VSB 3/4 WCI  29
6HR MIN TEMP:  34; 6HR MAX TEMP:  34;

CUMBERLAND     FOG       32  32 100 NW6       29.59R VSB 3/4 WCI  26
RICE LAKE      CLOUDY    34  34 100 CALM      29.60R
6HR MIN TEMP:  34; 6HR MAX TEMP:  34;

CHETEK         CLOUDY    34  34 100 CALM      29.59R FOG
6HR MIN TEMP:  33; 6HR MAX TEMP:  34;

LADYSMITH      FOG       35  34  99 CALM      29.58S VSB 1
6HR MIN TEMP:  34; 6HR MAX TEMP:  35;

EAU CLAIRE     CLOUDY    33  33 100 W3        29.58R FOG
6HR MIN TEMP:  33; 6HR MAX TEMP:  34; 6HR PCP:  0.02;

MENOMONIE        N/A    N/A N/A N/A MISG        N/A
NEW RICHMOND   FOG       33  33 100 N5        29.61R VSB 3/4 WCI  29
6HR MIN TEMP:  33; 6HR MAX TEMP:  34;

OSCEOLA        FOG       34  34 100 NW3       29.64R VSB 1/2
6HR MIN TEMP:  34; 6HR MAX TEMP:  35;

$$

WIZ003>005-009-010-017-018-221300-
NORTH CENTRAL WISCONSIN

CITY           SKY/WX    TMP DP  RH WIND       PRES   REMARKS
MANITOWISH WTR FOG       33  33 100 CALM      29.54R VSB 1/4
6HR MIN TEMP:  32; 6HR MAX TEMP:  33;

ARBOR VITAE    FOG       34  33  98 CALM      29.54R VSB 1
6HR MIN TEMP:  34; 6HR MAX TEMP:  37;

WOODRUFF       FOG       34  33  98 CALM      29.54R VSB 1
6HR MIN TEMP:  34; 6HR MAX TEMP:  37;

RHINELANDER    FOG       34  34 100 CALM      29.54S VSB 1/2
6HR MIN TEMP:  34; 6HR MAX TEMP:  36;

EAGLE RIVER    FOG       33  33 100 CALM      29.53S VSB 3/4
6HR MIN TEMP:  32; 6HR MAX TEMP:  34;

LAND O LAKES   FOG       34  34 100 CALM      29.55R VSB 3/4
6HR MIN TEMP:  34; 6HR MAX TEMP:  35; 6HR PCP:  0.01;

PHILLIPS       FOG       33  33 100 CALM      29.55R VSB 3/4
6HR MIN TEMP:  32; 6HR MAX TEMP:  34;

TOMAHAWK       FOG       33  32  96 CALM      29.55S VSB 1/2
6HR MIN TEMP:  32; 6HR MAX TEMP:  34;

MEDFORD        FOG       33  33  99 CALM      29.55R VSB 1/2
6HR MIN TEMP:  33; 6HR MAX TEMP:  34;

MERRILL        FOG       33  33 100 CALM        N/A  VSB 3/4
6HR MIN TEMP:  33; 6HR MAX TEMP:  34;

$$

WIZ029-030-035-036-043>047-221300-
CENTRAL WISCONSIN

CITY           SKY/WX    TMP DP  RH WIND       PRES   REMARKS
WAUSAU         FOG       34  34 100 CALM      29.55R VSB 3/4
6HR MIN TEMP:  33; 6HR MAX TEMP:  36; 6HR PCP: TRACE;

MOSINEE        FOG       36  36 100 CALM      29.57R VSB 1/4
MARSHFIELD     FOG       34  34 100 NW3       29.55R VSB 1/4
6HR MIN TEMP:  34; 6HR MAX TEMP:  36;

STEVENS POINT  FOG       35  35 100 CALM      29.57R VSB 1
6HR MIN TEMP:  33; 6HR MAX TEMP:  35;

WAUPACA        FOG       38  37  97 CALM      29.57S VSB 1/2
6HR MIN TEMP:  36; 6HR MAX TEMP:  39;

WAUTOMA        FOG       36  35  96 CALM      29.58R VSB 1/4
6HR MIN TEMP:  36; 6HR MAX TEMP:  39;

WISC RAPIDS    FOG       37  37 100 W5        29.58R VSB 3/4 WCI  33
6HR MIN TEMP:  36; 6HR MAX TEMP:  38;

CAMP DOUGLAS   FOG       35  35  99 CALM      29.58R VSB 1/2
6HR MIN TEMP:  35; 6HR MAX TEMP:  38;

$$

WIZ011>013-019>022-031-037>040-048>050-221300-
NORTHEAST WISCONSIN

CITY           SKY/WX    TMP DP  RH WIND       PRES   REMARKS
ANTIGO         DRZL/FOG  33  33 100 CALM      29.55R VSB 1/4
6HR MIN TEMP:  32; 6HR MAX TEMP:  33;

SHAWANO        FOG       35  34  96 CALM      29.57R VSB 1/4
6HR MIN TEMP:  34; 6HR MAX TEMP:  36;

OCONTO         CLOUDY    33  33 100 CALM      29.57R VSB 1/4
6HR MIN TEMP:  33; 6HR MAX TEMP:  35;

STURGEON BAY   FOG       38  38 100 CALM      29.58R VSB 1/4
6HR MIN TEMP:  36; 6HR MAX TEMP:  38;

GREEN BAY      FOG       37  37 100 CALM      29.57R VSB 1/4
6HR MIN TEMP:  36; 6HR MAX TEMP:  39;

MANITOWOC      FOG       39  38  96 MISG      29.59R VSB 1/4
6HR MIN TEMP:  36; 6HR MAX TEMP:  39;

APPLETON       FOG       36  36 100 VRB5      29.55S VSB 1/4 WCI  32
CLINTONVILLE   FOG       34  32  93 CALM      29.56S VSB 1/4
OSHKOSH        FOG       36  35  96 W3        29.57R VSB 1/4
6HR MIN TEMP:  35; 6HR MAX TEMP:  39;

$$

WIZ032>034-041-042-053>061-221300-
SOUTHWEST WISCONSIN

CITY           SKY/WX    TMP DP  RH WIND       PRES   REMARKS
LA CROSSE      FOG       38  36  92 CALM      29.60R VSB 3/4
6HR MIN TEMP:  38; 6HR MAX TEMP:  42;

SPARTA         FOG       35  35 100 CALM      29.60R VSB 1/2
6HR MIN TEMP:  34; 6HR MAX TEMP:  37;

VIROQUA        CLOUDY    35  35 100 W5        29.57S WCI  31
6HR MIN TEMP:  35; 6HR MAX TEMP:  37;

BOSCOBEL       CLOUDY    37  35  92 CALM      29.60R FOG
6HR MIN TEMP:  36; 6HR MAX TEMP:  38;

PRAIRIE DU CHI CLOUDY    34  33  97 CALM      29.60R FOG
6HR MIN TEMP:  33; 6HR MAX TEMP:  37;

PLATTEVILLE    CLOUDY    32  32 100 CALM      29.60R VSB<1/4
6HR MIN TEMP:  32; 6HR MAX TEMP:  38;

$$

WIZ056-057-062-063-064-067-068-221300-
SOUTH CENTRAL WISCONSIN

CITY           SKY/WX    TMP DP  RH WIND       PRES   REMARKS
REEDSBURG      CLOUDY    35  35 100 CALM      29.57R FOG
6HR MIN TEMP:  35; 6HR MAX TEMP:  38;

BARABOO/DELLS  FOG       35  35  99 CALM      29.57R VSB<1/4
6HR MIN TEMP:  35; 6HR MAX TEMP:  38;

LONE ROCK      FOG       35  34  96 CALM      29.59R VSB 3/4
6HR MIN TEMP:  35; 6HR MAX TEMP:  38;

MINERAL POINT  CLOUDY    36  36 100 SW3       29.58R FOG
MADISON        CLOUDY    37  37 100 CALM      29.60R FOG
6HR MIN TEMP:  37; 6HR MAX TEMP:  41;

MIDDLETON      CLOUDY    38  38 100 SW3       29.59R
6HR MIN TEMP:  38; 6HR MAX TEMP:  42;

WATERTOWN      CLOUDY    38  38 100 CALM      29.58R FOG
6HR MIN TEMP:  38; 6HR MAX TEMP:  39;

MONROE         FOG       34  34 100 NW7       29.58S VSB 1/2 WCI  28
JANESVILLE     FOG       36  36 100 NW5       29.59R VSB 3/4 WCI  32
$$

WIZ051-052-058>065-066-070>072-221300-
SOUTHEAST WISCONSIN

CITY           SKY/WX    TMP DP  RH WIND       PRES   REMARKS
MILWAUKEE      CLOUDY    41  39  93 CALM      29.59R FOG
6HR MIN TEMP:  39; 6HR MAX TEMP:  44;

WAUKESHA       FOG       37  37 100 SW3       29.59R VSB 1
MILWAUKEE/TIMM CLOUDY    37  36  93 W3        29.60R
RACINE         FOG       38  36  92 CALM      29.60R VSB 3/4
6HR MIN TEMP:  36; 6HR MAX TEMP:  42;

KENOSHA        FOG       38  37  97 CALM      29.59R VSB 1/4
6HR MIN TEMP:  37; 6HR MAX TEMP:  41;

FOND DU LAC    FOG       38  36  92 CALM      29.57R VSB 1/2
6HR MIN TEMP:  37; 6HR MAX TEMP:  41;

SHEBOYGAN      FOG       36  35  96 CALM      29.58R VSB 1/2
6HR MIN TEMP:  34; 6HR MAX TEMP:  40;

WEST BEND      CLOUDY    37  37 100 CALM      29.58R FOG
JUNEAU         FOG       36  36  99 S3        29.59R VSB<1/4
6HR MIN TEMP:  36; 6HR MAX TEMP:  38;

$$

LSZ147-162-221300-
LAKE SUPERIOR

STATION/POSITION TIME  TEMP    WIND        PRES    WAVE
                       AIR SEA DIR/SP/G            HT/PER
                 (UTC) (F)     (DEG/KT/KT) (MB)    (FT/S)
DEVILS ISLAND    1100   35      30/ 13/ 14 1002.6R
PORT WING        1130   35      40/  5/  9 1003.0R
SAXON HARBOR     1130   34     180/  3/  4 1002.0R
$$

LMZ867-665-643>646-221300-
LAKE MICHIGAN

STATION/POSITION TIME  TEMP    WIND        PRES    WAVE
                       AIR SEA DIR/SP/G            HT/PER
                 (UTC) (F)     (DEG/KT/KT) (MB)    (FT/S)
NORTHPORT PIER   1140   35        CALM     1001.7S
SISTER BAY       1135   36        CALM       N/A
KEWAUNEE LAKE



USA.gov is the U.S. government's official web portal to all federal, state and local government web resources and services.